sat.trackr.live / text

‹ back to catalog

STARLINK-32270

NORAD 60364 · 2024-138K

PAYLOAD ACTIVE UNKNOWN

§ Identity

Operator
Country
US
Launch date
2024-08-04
Launch site
AFWTR
Launch vehicle
Mass (kg)
RCS (m²)

Purposes: comms

External: N2YO · Heavens-Above · Gunter

§ Orbital elements

Epoch: 2026-05-24T21:30:52.117056Z

Period
94.11 min
Inclination
53.1614°
Eccentricity
0.0001218
Mean motion
15.30197749 rev/d
Perigee alt
474.4 km
Apogee alt
476.1 km
Semi-major
6,853.4 km
B*
3.4650e-5
RAAN
315.7417°
Arg perigee
79.5347°
Mean anomaly
280.5791°
Rev number
10,219

§ Raw data

STARLINK-322701 60364U 24138K   26144.89643654  .00000667  00000+0  34650-4 0  99992 60364  53.1614 315.7417 0001218  79.5347 280.5791 15.30197749102197

JSON: /api/v1/satellites/60364 · /tle

For live sub-satellite position, see the globe view (requires WebGL).

§ Visibility from observer

Set your observer location to see the next 7 days of passes ≥ 10°. The values pass through the URL so the page stays shareable.

No JS? Fill the form by hand. The geolocation button needs JavaScript.